Location: Falaise
(49.3785°N, 4.7300°E)
Time: 15:11:11
(UTC+00:00)

Daily predictions for brighter satellites

Satellite Brightness Start Highest point End
(mag) Time Altitude Azimuth Time Altitude Azimuth Time Altitude Azimuth
Unknown 3.7 17:23:17 10° WNW 17:26:15 40° N 17:29:15 10° ENE
SL-4 R/B 1.9 17:23:14 10° WNW 17:27:13 78° SSW 17:30:53 10° ESE
Gbstr 26 Del rocket 4.1 17:21:46 10° W 17:27:27 72° N 17:34:31 10° E
Unknown 4.3 17:24:44 10° SSW 17:28:33 39° SE 17:32:23 10° ENE
Unknown 4.4 17:24:49 10° SSW 17:28:37 36° SE 17:32:26 10° ENE
Unknown 4.4 17:26:25 10° SSW 17:30:14 37° SE 17:34:05 10° ENE
Unknown 4.3 17:28:05 10° SSW 17:31:56 38° SE 17:35:47 10° ENE
Cosmos 2263 Rocket 2.9 17:26:28 10° SW 17:32:03 56° NW 17:37:38 10° NNE
Unknown 4.3 17:29:42 10° SSW 17:33:34 39° SE 17:37:26 10° ENE
Okean-O 3.1 17:29:25 10° S 17:33:49 67° WSW 17:38:15 10° NNW
CSL-04 Rocket 3.9 17:28:45 10° SE 17:34:09 54° ENE 17:39:31 10° N
NOSS 2-1 (E) 4.4 17:29:28 10° NW 17:34:46 76° NE 17:42:12 10° SE
Unknown 4.3 17:31:19 10° SSW 17:35:11 40° SE 17:39:04 10° ENE
CZ-2D R/B 4.3 17:32:41 10° ESE 17:35:55 26° ENE 17:39:10 10° N
Cosmos 1726 Rocket 4.1 17:32:47 10° SSE 17:36:48 36° E 17:40:50 10° NNE
Cosmos 1271 Rocket 2.9 17:33:09 10° N 17:37:00 51° ENE 17:40:53 10° SSE
Unknown 4.2 17:34:39 10° SW 17:38:34 42° SE 17:42:20 11° ENE
Cosmos 724 4.4 17:34:05 10° SSW 17:40:09 64° ESE 17:46:07 10° NE
Starlink (trailer) 4.2 17:36:16 10° SW 17:40:11 43° SE 17:43:54 11° ENE
BREEZE M DEB (TANK) 1.6 17:38:09 10° W 17:40:16 74° S 17:44:14 10° ESE
Unknown 4.1 17:37:56 10° SW 17:41:52 44° SE 17:45:31 12° ENE
Cosmos 1821 Rocket 3.9 17:36:15 10° N 17:42:22 72° ENE 17:48:29 10° SSE
Unknown 3.8 17:39:10 10° SW 17:43:08 56° SSE 17:46:49 12° ENE
Unknown 4.1 17:39:31 10° SW 17:43:29 45° SE 17:47:05 12° ENE
Lacrosse 5 2.9 17:38:55 10° WNW 17:43:35 35° N 17:47:59 11° ENE
Cosmos 1953 2.4 17:40:01 10° S 17:44:00 59° E 17:48:01 10° NNE
Cosmos 2058 Rocket 3.9 17:40:18 10° SSE 17:44:03 29° E 17:47:48 10° NNE
Shenzhou-11 Module 4.2 17:43:54 10° S 17:44:59 12° SSE 17:46:03 10° SE
Cosmos 1833 Rocket 3.8 17:41:08 10° NNW 17:45:45 25° NE 17:49:44 12° E
Cosmos 1758 3.6 17:44:55 10° SSW 17:48:53 73° W 17:52:53 10° N
Cosmos 1703 4.1 17:45:46 10° N 17:49:18 30° ENE 17:52:48 10° SE
Unknown 4.0 17:46:06 10° SW 17:50:06 49° SE 17:53:28 14° ENE
Unknown 3.9 17:46:10 10° SW 17:50:10 50° SE 17:53:32 14° ENE
Nadezhda 3 Rocket 4.0 17:44:37 10° S 17:50:52 75° E 17:57:12 10° NNE
Unknown 3.9 17:46:57 10° SW 17:50:58 50° SE 17:54:18 14° ENE
COBE Rocket 4.0 17:46:03 10° NNE 17:51:16 83° ESE 17:56:25 10° S
Cosmos 2228 3.1 17:49:36 10° S 17:53:54 56° E 17:58:11 10° NNE
Cosmos 1626 3.4 17:50:19 10° NNW 17:53:54 45° W 17:57:27 10° SSW
Unknown 3.9 17:51:03 10° SW 17:55:05 53° SSE 17:58:16 16° ENE
Unknown 3.9 17:51:04 10° SW 17:55:06 53° SSE 17:58:17 16° ENE
COSMOS 2406 3.5 17:51:06 10° NNW 17:56:44 50° NE 18:02:19 10° SE
Unknown 3.8 17:52:46 10° SW 17:56:50 56° SSE 17:59:59 16° ENE
Cosmos 1535 Rocket 4.5 17:50:43 10° N 17:56:55 62° ENE 18:03:01 10° SSE
Cosmos 1934 Rocket 4.0 17:52:44 10° N 17:59:01 64° ENE 18:05:20 10° SSE
Envisat 3.5 17:54:58 10° S 18:00:00 64° WSW 18:05:05 10° NNW
Unknown 3.8 17:56:04 10° SW 18:00:08 59° SSE 18:03:10 17° ENE
Unknown 3.8 17:56:43 10° SW 18:00:47 58° SSE 18:03:45 18° ENE
Cosmos 2082 Rocket 3.4 17:56:26 10° NNW 18:01:04 24° NE 18:04:05 16° E
Unknown 3.8 17:57:39 10° SW 18:01:44 58° SSE 18:04:41 18° ENE
COSMO-SKYMED 1 2.5 17:57:25 10° NNE 18:01:48 86° ESE 18:06:08 10° SSW
Cosmos 1726 2.6 18:00:20 10° SSE 18:03:42 35° E 18:07:04 10° NNE
Cosmos 304 Rocket 4.1 17:59:21 10° SSW 18:04:08 70° WNW 18:08:57 10° NNE
Meteor 1-11 4.5 17:58:39 10° N 18:04:12 48° ENE 18:09:47 10° SE
Unknown 3.7 18:00:52 10° SW 18:04:56 59° SSE 18:07:45 19° ENE
Cosmos 1939 Rocket 3.1 18:02:08 10° SE 18:05:57 47° ENE 18:09:50 10° N
ATLAS CENTAUR R/B 4.1 18:03:37 10° NW 18:06:02 14° NNW 18:08:25 10° NNE
Cosmos 921 Rocket 3.4 18:01:53 10° S 18:06:10 44° ESE 18:10:27 10° NNE
Cosmos 482 Debris 4.4 18:02:26 10° WNW 18:07:53 76° SSW 18:10:07 20° ESE
Unknown 3.7 18:04:15 10° SW 18:08:21 64° SSE 18:11:03 20° ENE
Unknown 3.6 18:05:54 10° SW 18:09:59 65° SSE 18:12:38 21° ENE
Unknown 3.6 18:07:35 10° SW 18:11:42 67° SSE 18:14:17 22° ENE
CSL-04 Debris 4.3 18:07:31 10° SSE 18:12:58 79° WSW 18:18:29 10° NNW
Unknown 3.6 18:09:14 10° SW 18:13:21 68° SSE 18:15:52 23° ENE
Cosmos 1356 3.8 18:10:41 10° SSE 18:13:55 39° E 18:17:09 10° NNE
Lacrosse 5 rocket 1.6 18:10:49 10° WNW 18:14:31 59° SW 18:17:43 14° SE
Cosmos 1953 Rocket 3.8 18:11:10 10° NNW 18:15:34 72° W 18:19:53 10° S
Unknown 3.6 18:12:30 10° SW 18:16:38 71° SSE 18:19:02 24° ENE
USA 116 3.0 18:14:41 10° NNE 18:17:48 82° ESE 18:21:00 10° SSW
Unknown 3.6 18:14:14 10° WSW 18:18:22 73° SSE 18:20:42 25° ENE
Unknown 3.6 18:15:51 10° WSW 18:19:59 74° SSE 18:22:15 26° ENE
Cosmos 2084 3.5 18:16:21 10° SSW 18:20:49 63° SE 18:24:06 18° NE
Unknown 3.5 18:17:27 10° WSW 18:21:35 74° SSE 18:23:47 27° ENE
Unknown 3.5 18:18:06 10° WSW 18:22:14 76° SSE 18:24:25 27° ENE
CZ-4 R/B 2.6 18:18:59 10° S 18:22:58 46° W 18:27:02 10° NNW
Unknown 3.5 18:20:38 10° WSW 18:24:46 75° SSE 18:26:49 29° ENE
FALCON 9 DEB 3.9 18:21:41 10° WNW 18:25:02 44° N 18:26:23 29° NE
Unknown 3.9 18:22:13 10° WNW 18:25:37 44° N 18:27:00 28° NE
Cosmos 1242 Rocket 2.6 18:23:17 10° NNW 18:26:59 84° WSW 18:30:40 10° S
Meteor 1-16 Rocket 4.1 18:21:52 10° S 18:27:29 82° E 18:32:57 10° NNE
Unknown 3.5 18:23:59 10° WSW 18:28:07 78° SSE 18:30:02 31° ENE
Cosmos 1328 3.7 18:24:56 10° N 18:28:57 89° W 18:32:56 10° S
Unknown 3.5 18:25:37 10° WSW 18:29:45 79° SSE 18:31:36 32° ENE
Unknown 3.7 18:26:39 10° W 18:30:31 64° NNW 18:32:18 30° ENE
ADEOS Rocket 4.2 18:23:50 10° NNE 18:30:32 30° E 18:36:55 10° SSE
Cosmos 1844 Rocket 2.8 18:25:15 10° SSW 18:30:55 80° WNW 18:36:37 10° NNE
Unknown 2.3 18:28:32 10° WNW 18:31:12 88° SSW 18:31:23 76° ESE
Unknown 3.5 18:27:30 10° WSW 18:31:39 85° SSE 18:33:29 32° ENE
Cosmos 1606 Rocket 4.4 18:27:29 10° SSW 18:31:48 53° WNW 18:36:06 10° N
Unknown 3.5 18:28:55 10° WSW 18:33:04 82° SSE 18:34:47 34° ENE
Cosmos 1908 3.2 18:30:09 10° S 18:33:58 55° E 18:37:49 10° NNE
Unknown 3.5 18:30:37 10° WSW 18:34:46 84° SSE 18:36:25 35° ENE
Unknown 3.8 18:31:26 10° W 18:35:13 57° NNW 18:36:44 32° NE
Unknown 3.9 18:33:37 10° W 18:37:16 50° N 18:38:33 33° NE
Unknown 3.5 18:33:53 10° WSW 18:38:02 86° SSE 18:39:35 38° ENE
ASTEX 1 4.2 18:34:03 10° N 18:38:51 53° WNW 18:43:39 10° SSW
Unknown 3.5 18:35:36 10° WSW 18:39:45 88° SSE 18:41:14 39° ENE
Unknown 3.7 18:37:32 10° WNW 18:40:50 45° N 18:41:24 40° NE
Unknown 3.5 18:37:15 10° WSW 18:41:24 89° S 18:42:49 41° ENE
SPOT 3 Rocket 3.9 18:39:51 32° ESE 18:41:33 42° ENE 18:46:26 10° N
Meteor 2-10 3.8 18:36:48 10° S 18:41:55 85° E 18:46:59 10° NNE
Ariane Rocket 3.0 18:37:24 10° SSE 18:42:30 85° WSW 18:47:39 10° NNW
Unknown 3.5 18:38:57 10° WSW 18:43:06 89° NNW 18:44:26 42° ENE
Cosmos 2278 Rocket 2.6 18:39:16 10° S 18:44:27 38° ESE 18:46:34 28° ENE
Cosmos 489 Rocket 4.4 18:40:16 10° S 18:46:24 68° ESE 18:52:34 10° NNE
Unknown 3.5 18:42:15 10° WSW 18:46:24 86° NNW 18:47:37 45° ENE
SWAS 4.4 18:42:29 10° SSW 18:46:46 89° NW 18:50:17 15° NNE
Cosmos 1844 3.9 18:41:33 10° SSW 18:47:16 77° WNW 18:53:05 10° NNE
Unknown 3.6 18:44:01 10° WSW 18:48:10 84° NNW 18:49:19 47° ENE
Unknown 3.6 18:44:13 10° WSW 18:48:22 80° NNW 18:49:33 46° ENE
Falcon 9 debris 3.7 18:45:03 10° WNW 18:48:24 46° N 18:48:41 45° NNE
Cosmos 2058 4.2 18:45:40 10° N 18:48:12 26° NE 18:48:12 26° NE
Unknown 3.7 18:46:12 10° WNW 18:49:36 46° N 18:49:56 44° NNE
Unknown 3.6 18:45:49 10° WSW 18:49:59 80° NNW 18:51:05 47° ENE
Unknown 3.6 18:48:51 10° WSW 18:53:01 81° NNW 18:53:57 52° ENE
Unknown 3.6 18:52:12 10° WSW 18:56:21 79° NNW 18:57:10 56° NE
USA 234 4.1 18:57:29 28° SE 18:57:29 28° SE 19:02:29 10° S
Unknown 3.6 18:53:55 10° WSW 18:58:05 78° NNW 18:58:49 58° NE
Unknown 3.6 18:55:32 10° WSW 18:59:41 77° NNW 19:00:22 59° NE
H-2A R/B 2.3 18:59:39 45° E 19:00:34 51° ENE 19:05:46 10° N
Cosmos 1777 Rocket 4.0 18:55:26 10° NNW 19:00:41 81° WSW 19:03:37 27° SSE
Unknown 3.6 18:57:14 10° WSW 19:01:24 75° NNW 19:02:00 61° NE
SJ-11-01 4.1 18:59:52 35° SSE 19:01:51 81° ENE 19:06:34 10° NNW
Unknown 3.6 18:59:08 10° WNW 19:01:36 52° NW 19:01:36 52° NW
ATLAS 5 CENTAUR R/B 2.8 18:59:16 10° WSW 19:03:28 42° NW 19:07:08 16° NNE
SL-4 R/B 3.8 19:03:33 10° W 19:06:20 20° SW 19:07:19 18° SSW
Unknown 3.7 19:03:45 10° W 19:07:50 68° NNW 19:08:10 64° NNE
Unknown 3.6 19:03:53 10° WSW 19:08:02 71° NNW 19:08:22 67° NNE
Unknown 3.7 19:05:32 10° WSW 19:09:41 70° NNW 19:09:57 67° NNE
CZ-2C R/B 3.7 19:10:54 44° ENE 19:11:03 44° ENE 19:16:31 10° N
Unknown 3.7 19:07:14 10° WSW 19:11:23 69° NNW 19:11:35 68° N
Unknown 3.7 19:08:53 10° WSW 19:13:02 68° NNW 19:13:09 68° N
Unknown 3.7 19:10:32 10° W 19:14:40 68° NNW 19:14:43 67° N
Gbstr 26 Del rocket 4.1 19:08:46 10° WNW 19:15:06 88° NNE 19:17:24 48° ESE
Cosmos 1076 Rocket 3.5 19:10:52 10° N 19:14:49 68° NNE 19:14:49 68° NNE
Cosmos 2084 Rocket 4.5 19:11:47 10° NNW 19:15:23 35° NNE 19:15:23 35° NNE
Cosmos 1461 3.2 19:12:35 10° NW 19:15:58 54° N 19:15:58 54° N
Unknown 3.8 19:13:56 10° W 19:17:59 66° NNW 19:17:59 66° NNW
NOSS 3-3 (A) 4.5 19:11:38 10° NW 19:18:56 67° NE 19:21:24 46° ESE
NOSS 3-3 (C) 4.5 19:11:44 10° NW 19:19:01 67° NE 19:21:28 46° ESE
Starlink (trailer) 3.9 19:15:35 10° W 19:19:33 64° NNW 19:19:33 64° NNW
Unknown 3.9 19:17:16 10° W 19:21:10 63° NW 19:21:10 63° NW
Unknown 4.1 19:18:23 10° W 19:22:06 55° NNW 19:22:06 55° NNW
Unknown 4.0 19:18:54 10° W 19:22:44 61° NW 19:22:44 61° NW
SJ-6B 3.6 19:25:00 45° NNW 19:25:00 45° NNW 19:27:43 10° NNW
Lacrosse 5 1.9 19:22:11 10° NW 19:27:11 66° NNE 19:27:11 66° NNE
BREEZE-M DEB (TANK) 3.6 19:21:20 10° SW 19:27:40 41° SSW 19:27:40 41° SSW
Unknown 4.2 19:25:34 10° W 19:29:07 54° NW 19:29:07 54° NW
Unknown 4.2 19:25:39 10° W 19:29:11 54° NW 19:29:11 54° NW
Cosmos 1833 Rocket 2.7 19:24:39 10° NNW 19:30:17 75° WSW 19:31:28 56° S
Unknown 4.3 19:26:26 10° W 19:29:57 53° NW 19:29:57 53° NW
Cosmos 1459 Rocket 3.8 19:24:49 10° N 19:31:02 78° E 19:32:12 60° SSE
Resurs 01 Rocket 3.2 19:35:40 26° N 19:35:40 26° N 19:37:46 10° N
Unknown 4.5 19:30:36 10° W 19:33:56 49° WNW 19:33:56 49° WNW
Unknown 4.5 19:30:36 10° W 19:33:55 49° WNW 19:33:55 49° WNW
ARGOS 3.0 19:34:27 79° SE 19:34:47 87° ENE 19:40:16 10° NNW
Cosmos 1727 Rocket 4.1 19:29:03 10° SSW 19:35:13 73° W 19:41:25 10° N
Cosmos 1802 Rocket 3.9 19:31:52 10° N 19:38:21 75° E 19:38:56 70° ESE
Cosmos 1898 Rocket 4.3 19:36:20 10° NNW 19:40:09 41° NNE 19:40:09 41° NNE
Cosmos 2082 Rocket 2.1 19:40:05 10° NNW 19:45:50 81° WSW 19:45:57 80° SW
ATLAS CENTAUR R/B 4.0 19:44:29 10° NNW 19:46:39 14° N 19:46:39 14° N
Cosmos 2173 Rocket 4.0 19:44:14 10° NNW 19:50:33 78° W 19:51:41 61° SSW
SJ 16-02 3.5 19:53:16 10° N 19:54:38 19° N 19:54:38 19° N
Cosmos 1725 Rocket 4.2 19:59:46 10° N 20:04:50 60° N 20:04:50 60° N
Cosmos 2100 Rocket 4.5 20:00:21 10° NNW 20:06:25 57° W 20:07:49 46° SW
ADEOS Rocket 3.7 20:08:49 10° NNE 20:16:35 70° WNW 20:23:57 10° SSW
Cosmos 2278 Rocket 3.2 20:23:06 10° SW 20:28:29 43° NW 20:28:36 43° NW
H-2A R/B 3.8 20:40:17 27° W 20:40:17 27° W 20:44:47 10° NW
ATLAS 5 CENTAUR R/B 4.3 20:46:02 10° NW 20:48:41 18° NNW 20:48:41 18° NNW
